Weather History for KLFK - September, 2014

Change the Weather History Date:

Wednesday, September 3, 2014

  Actual Average Record
Temperature  
Mean Temperature 86 °F 81 °F  
Max Temperature 95 °F 92 °F 109 °F (2000)
Min Temperature 76 °F 70 °F 55 °F (1955)
Degree Days  
Heating Degree Days 0 0  
Month to date heating degree days 0 0  
Since 1 July heating degree days 0 0  
Cooling Degree Days 21 16  
Month to date cooling degree days 62 48  
Year to date cooling degree days 2296 2071  
Growing Degree Days 34 (Base 50)    
Moisture  
Dew Point 74 °F    
Average Humidity 72    
Maximum Humidity 94    
Minimum Humidity 49    
Precipitation  
Precipitation 0.00 in 0.14 in 1.96 in (2010)
Month to date precipitation 0.44 0.42  
Year to date precipitation 32.36 31.01  
Snow  
Snow 0.00 in - - ()
Month to date snowfall 0.0  
Since 1 July snowfall 0.0  
Since 1 September snowfall 0.0  
Snow Depth 0.00 in    
Sea Level Pressure  
Sea Level Pressure 29.99 in    
Wind  
Wind Speed 5 mph (ESE)    
Max Wind Speed 12 mph    
Max Gust Speed 20 mph    
Visibility 6 miles    
Events Fog    
T = Trace of Precipitation, MM = Missing Value Source: NWS Daily Summary

Daily Weather History Graph

Daily Weather History Graph

Search for Another Location

Airport or City:

Trip Planner

Search our weather history database for the weather conditions in past years. The results will help you decide how hot, cold, wet, or windy it might be!

Date:

Astronomy

Sep. 03, 2014 Rise Set
Actual Time 6:56 AM CDT 7:39 PM CDT
Civil Twilight 6:31 AM CDT 8:04 PM CDT
Nautical Twilight 6:02 AM CDT 8:33 PM CDT
Astronomical Twilight 5:32 AM CDT 9:03 PM CDT
Moon 3:10 PM CDT 1:02 AM CDT
Length of Visible Light 13h 32m
Length of Day
12h 43m
Waxing Gibbous, 64% of the Moon is Illuminated
Sep 3
Waxing Gibbous
Sep 8
Full
Sep 15
Last Quarter
Sep 24
New
Oct 1
First Quarter

Hourly Weather History & Observations

Time (CDT) Temp. Heat Index Dew Point Humidity Pressure Visibility Wind Dir Wind Speed Gust Speed Precip Events Conditions
12:53 AM 77.0 °F - 73.0 °F 88% 29.97 in 9.0 mi ESE 4.6 mph - N/A   Clear
1:53 AM 77.0 °F - 73.9 °F 90% 29.96 in 8.0 mi Calm Calm - N/A   Clear
2:29 AM 77.0 °F - 73.0 °F 88% 29.97 in 1.8 mi ESE 3.5 mph - N/A   Clear
2:40 AM 75.9 °F - 73.0 °F 91% 29.97 in 3.0 mi SE 3.5 mph - N/A   Clear
2:53 AM 75.9 °F - 73.0 °F 91% 29.96 in 5.0 mi Calm Calm - N/A   Clear
3:00 AM 77.0 °F - 73.0 °F 88% 29.97 in 2.5 mi Calm Calm - N/A   Scattered Clouds
3:11 AM 77.0 °F - 73.0 °F 88% 29.98 in 1.8 mi Calm Calm - N/A   Scattered Clouds
3:18 AM 77.0 °F - 73.0 °F 88% 29.97 in 3.0 mi Calm Calm - N/A   Scattered Clouds
3:31 AM 75.9 °F - 73.0 °F 91% 29.97 in 1.8 mi ESE 3.5 mph - N/A   Scattered Clouds
3:48 AM 75.2 °F - 73.4 °F 94% 29.98 in 3.0 mi East 4.6 mph - N/A   Partly Cloudy
3:53 AM 75.9 °F - 73.0 °F 91% 29.96 in 5.0 mi ESE 4.6 mph - N/A   Partly Cloudy
4:12 AM 75.9 °F - 72.0 °F 87% 29.98 in 2.5 mi ENE 5.8 mph - N/A   Scattered Clouds
4:16 AM 75.9 °F - 73.0 °F 91% 29.98 in 1.0 mi ENE 4.6 mph - N/A   Mostly Cloudy
4:19 AM 75.9 °F - 73.0 °F 91% 29.98 in 0.5 mi East 4.6 mph - N/A Fog Fog
4:53 AM 77.0 °F - 73.9 °F 90% 29.97 in 1.0 mi East 3.5 mph - N/A   Mist
5:12 AM 78.1 °F - 73.9 °F 87% 29.99 in 3.0 mi Calm Calm - N/A   Overcast
5:39 AM 78.1 °F - 73.9 °F 87% 29.99 in 1.8 mi SE 5.8 mph - N/A   Overcast
5:53 AM 77.0 °F - 73.9 °F 90% 29.98 in 0.8 mi SE 4.6 mph - N/A   Mist
6:13 AM 77.0 °F - 73.9 °F 90% 29.99 in 0.2 mi SE 4.6 mph - N/A Fog Fog
6:53 AM 77.0 °F - 73.9 °F 90% 30.00 in 0.2 mi ESE 5.8 mph - N/A Fog Fog
7:53 AM 77.0 °F - 73.9 °F 90% 30.01 in 0.2 mi ESE 5.8 mph - N/A Fog Fog
8:30 AM 78.1 °F - 75.0 °F 90% 30.03 in 0.5 mi ESE 5.8 mph - N/A Fog Fog
8:53 AM 79.0 °F - 75.9 °F 90% 30.03 in 0.8 mi ESE 5.8 mph - N/A   Overcast
9:06 AM 79.0 °F - 75.9 °F 90% 30.04 in 1.5 mi ESE 5.8 mph - N/A   Overcast
9:15 AM 79.0 °F - 75.9 °F 90% 30.04 in 3.0 mi ESE 5.8 mph - N/A   Overcast
9:53 AM 81.0 °F 87.9 °F 77.0 °F 88% 30.03 in 8.0 mi ESE 6.9 mph - N/A   Overcast
10:34 AM 82.0 °F 90.2 °F 77.0 °F 85% 30.05 in 10.0 mi SSE 5.8 mph - N/A   Overcast
10:53 AM 84.0 °F 93.7 °F 77.0 °F 79% 30.04 in 10.0 mi SE 6.9 mph - N/A   Overcast
11:00 AM 84.9 °F 95.3 °F 77.0 °F 77% 30.06 in 10.0 mi SSE 8.1 mph - N/A   Mostly Cloudy
11:32 AM 84.9 °F 93.3 °F 75.0 °F 72% 30.06 in 10.0 mi SE 4.6 mph - N/A   Scattered Clouds
11:53 AM 87.1 °F 97.3 °F 75.9 °F 69% 30.04 in 10.0 mi SSE 5.8 mph - N/A   Scattered Clouds
12:53 PM 90.0 °F 101.3 °F 75.9 °F 63% 30.03 in 10.0 mi SSE 5.8 mph - N/A   Scattered Clouds
1:53 PM 91.9 °F 103.2 °F 75.0 °F 58% 30.01 in 10.0 mi Variable 5.8 mph - N/A   Scattered Clouds
2:53 PM 93.9 °F 105.4 °F 75.0 °F 54% 29.99 in 10.0 mi East 9.2 mph - N/A   Scattered Clouds
3:53 PM 93.9 °F 102.1 °F 72.0 °F 49% 29.97 in 10.0 mi Variable 5.8 mph - N/A   Clear
4:53 PM 93.9 °F 103.4 °F 73.0 °F 51% 29.95 in 10.0 mi ESE 9.2 mph - N/A   Clear
5:07 PM 93.9 °F 102.1 °F 72.0 °F 49% 29.96 in 10.0 mi SSE 8.1 mph - N/A   Partly Cloudy
5:53 PM 93.0 °F 101.9 °F 73.0 °F 52% 29.95 in 10.0 mi ESE 9.2 mph - N/A   Clear
6:53 PM 91.0 °F 99.3 °F 73.0 °F 55% 29.94 in 10.0 mi SE 5.8 mph - N/A   Clear
7:53 PM 84.9 °F 93.3 °F 75.0 °F 72% 29.95 in 10.0 mi ESE 4.6 mph - N/A   Clear
8:53 PM 82.9 °F 89.4 °F 73.9 °F 74% 29.98 in 10.0 mi ESE 3.5 mph - N/A   Clear
9:53 PM 82.0 °F 87.9 °F 73.9 °F 76% 30.00 in 10.0 mi SE 4.6 mph - N/A   Clear
10:53 PM 81.0 °F 86.2 °F 73.9 °F 79% 30.00 in 10.0 mi SSE 5.8 mph - N/A   Clear
11:53 PM 79.0 °F - 73.9 °F 84% 30.00 in 10.0 mi SE 4.6 mph - N/A   Clear